Volver al catálogo

STARLINK-5492

ActivoComunicacionesVLEO
NORAD 55331·PAYLOAD·🇺🇸 United States

Lanzado Jan 26, 2023 desde Cape Canaveral Space Force Station

Loading…

Próximos Pases (próximas 24 horas)

TLE

ActualizadoSource: CelesTrak SupGP

Época: Sep 14, 2026, 22:03 UTC

1 55331C 23013A   26257.91923611 -.00039910  00000+0 -14457-2 0  2573
2 55331  43.0016 314.8318 0001209 270.2126  53.8188 15.27594929    10

Sigue STARLINK-5492 en tiempo real con AllMySat

Download on the App Store